Location: Cactus School
(34.5700°N, 118.0931°W)
Time: 17:12:22
(UTC-08:00)

Tiros 1 - Pass Details

Date: 27 November 2019
Orbit: 630 x 664 km, 48.4° (Epoch: 06 December)

Event Time Altitude Azimuth Distance (km) Brightness Sun altitude
Rises 13:48:29 0° 304° (WNW) 2,918 10.5 26.4°
Reaches altitude 10° 13:51:51 10° 329° (NNW) 2,008 9.5 26.0°
Maximum altitude 13:54:21 14° 2° (N) 1,739 9.0 25.8°
Drops below altitude 10° 13:56:52 10° 35° (NE) 2,009 9.2 25.5°
Sets 14:00:14 0° 61° (ENE) 2,920 10.0 25.0°
